View from above orbital plane
|
View from above satellite
|
Ground track
|
The orbit data is extracted from the following two-line orbital elements,
1 39430U 13066Q 22137.48031961 .00001090 00000-0 20213-3 0 9993
2 39430 97.8125 46.4487 0150315 142.1318 219.0589 14.60091135451779
Epoch (UTC): | 17 May 2022 11:31:39 |
Eccentricity: | 0.0150315 |
inclination: | 97.8125° |
perigee height: | 586 km |
apogee height: | 799 km |
right ascension of ascending node: | 46.4487° |
argument of perigee: | 142.1318° |
revolutions per day: | 14.60091135 |
mean anomaly at epoch: | 219.0589° |
orbit number at epoch: | 45177 |
The dashed part of the orbit path shows where the satellite is in the earth's shadow,
|
|